Location: Chandrammap?lem
(16.9200°N, 81.0051°E)
Time: 21:15:28
(UTC+00:00)

FALCON 9 R/B - Pass Details

Date: 29 May 2024
Orbit: 299 x 9680 km, 34.5° (Epoch: 14 June)

Event Time Altitude Azimuth Distance (km) Brightness Sun altitude
Rises 16:12:03 0° 312° (NW) 3,424 6.3 -38.1°
Reaches altitude 10° 16:13:48 10° 319° (NW) 2,882 5.7 -38.4°
Maximum altitude 16:20:52 50° 35° (NE) 2,490 4.4 -39.5°
Enters shadow 16:25:18 41° 76° (ENE) 3,575 5.0 -40.2°
Exits shadow 16:51:26 - 109° (ESE) 10,568 7.4 -43.9°
Sets 17:01:06 0° 112° (ESE) 12,489 7.8 -45.2°
